Location: Tel Aviv-Yafo
(32.0678°N, 34.7647°E)
Time: 15:59:36
(UTC+03:00)

Daily predictions for brighter satellites

Satellite Brightness Start Highest point End
(mag) Time Altitude Azimuth Time Altitude Azimuth Time Altitude Azimuth
CZ-2C R/B 3.1 19:54:05 10° NNE 19:58:50 36° E 20:03:35 10° SSE
RESURS DK-1 4.1 19:56:40 10° NW 20:00:26 34° WSW 20:04:11 10° S
HJ-1C 3.7 19:59:16 10° S 20:02:36 69° W 20:05:57 10° NNW
CZ-2C R/B 3.1 20:00:04 10° S 20:05:08 83° WSW 20:10:01 10° NNW
Cosmos 1269 Rocket 4.0 20:00:21 10° SSW 20:05:37 84° ESE 20:10:55 10° NNE
Cosmos 1633 4.1 20:03:49 10° SE 20:06:14 18° E 20:08:40 10° NE
Cosmos 1346 Rocket 3.2 20:03:09 10° SSE 20:06:50 39° E 20:10:33 10° NNE
Shenzhou-11 Module 1.7 20:07:23 10° WSW 20:09:44 64° NNW 20:12:04 10° NE
Cosmos 1606 3.1 20:13:20 10° N 20:17:03 44° E 20:20:42 10° SSE
Cosmos 1656 Rocket 3.7 20:11:40 10° NNW 20:17:08 66° ENE 20:22:38 10° SSE
Cosmos 1943 Rocket 3.8 20:12:43 10° NW 20:17:45 35° WSW 20:22:44 10° SSW
SJ-6B 3.3 20:15:27 10° SSE 20:19:22 44° ENE 20:23:16 10° N
MOS 1 4.4 20:18:21 10° SSE 20:23:51 57° ENE 20:29:21 10° N
FREGAT/IRIS 2.4 20:21:56 10° SSE 20:24:30 52° ENE 20:27:05 10° N
Sakura Rocket 3.5 20:22:07 10° W 20:27:53 59° S 20:31:20 16° ESE
Cosmos 1328 Rocket 3.9 20:27:08 10° N 20:31:23 47° E 20:35:16 12° SSE
Resurs 01 Rocket 3.1 20:29:44 15° ESE 20:31:49 20° ENE 20:35:01 10° NNE
Cosmos 1110 Rocket 4.1 20:27:47 10° NNW 20:33:07 87° WSW 20:38:25 10° SSE
MetOp-A 4.3 20:28:20 10° SSE 20:33:31 54° ENE 20:38:44 10° N
Cosmos 1340 4.2 20:30:36 10° SSW 20:34:07 38° W 20:37:41 10° N
Cosmos 1933 3.4 20:32:20 10° N 20:36:22 56° E 20:39:54 13° SSE
Meteor 2-3 Rocket 3.8 20:35:37 10° S 20:41:22 89° E 20:47:11 10° N
Cosmos 2341 Rocket 4.2 20:35:25 10° S 20:41:36 74° W 20:47:50 10° N
Meteor 2-12 Rocket 4.4 20:36:43 10° S 20:42:50 75° E 20:49:00 10° N
Cosmos 2366 rocket 4.0 20:38:16 10° S 20:44:29 66° E 20:50:39 10° NNE
Cosmos 1302 Rocket 4.1 20:44:35 10° N 20:49:43 57° ENE 20:52:58 22° SE
Iridium 2 3.9 20:46:23 10° N 20:50:08 70° W 20:53:51 10° S
MONITOR-E 3.6 20:55:05 44° S 20:55:40 70° W 20:58:03 10° NNW
Cosmos 1782 3.4 20:52:01 10° NNE 20:55:45 37° E 20:56:45 31° ESE
Cosmos 1515 Rocket 3.6 20:55:04 10° N 20:59:28 58° E 21:01:34 29° SSE
SL-8 Rocket 4.2 20:54:00 10° SSW 21:00:06 71° W 21:06:17 10° N
Abrixas rocket 3.0 21:00:26 10° WNW 21:03:05 33° SW 21:03:33 31° SSW
H-2A R/B 4.3 21:04:09 10° SSW 21:08:13 22° W 21:12:14 10° NW
USA 186 4.3 21:07:33 10° SW 21:08:43 12° W 21:09:51 10° WNW
ERBS 3.6 21:08:36 10° WSW 21:11:46 40° NW 21:14:55 10° NNE
Spot 2 Rocket 4.4 21:17:06 30° E 21:17:49 31° ENE 21:22:15 10° N
Cosmos 1743 Rocket 4.2 21:21:55 11° SSW 21:25:58 55° W 21:30:20 10° N
SPOT 3 Rocket 3.9 21:26:41 24° S 21:29:44 61° WSW 21:34:54 10° NNW
Resurs 1-3 4.3 21:28:38 26° SSW 21:30:46 49° W 21:35:01 10° NNW
ISS -3.0 21:31:16 10° NW 21:34:01 52° W 21:34:01 52° W
Cosmos 1992 Rocket 4.0 21:29:49 10° N 21:34:59 57° ENE 21:35:37 53° ESE
Cosmos 972 Rocket 4.2 21:32:36 10° N 21:37:25 47° ENE 21:37:27 47° ENE
USA 234 3.8 21:39:11 33° E 21:41:33 46° NE 21:47:43 10° NNW
CZ-3A R/B 3.4 21:22:33 10° W 21:46:04 55° SSW 21:48:28 43° SSE
MetOp-B 4.0 21:47:31 62° SSE 21:48:28 89° E 21:53:51 10° NNW
Sich 1 3.2 21:49:25 63° NNE 21:49:25 63° NNE 21:53:13 10° N
Cosmos 1862 3.8 21:49:25 54° W 21:49:41 56° W 21:53:39 10° N
Gbstr 26 Del rocket 3.5 21:48:10 10° NW 21:50:57 46° NNW 21:50:57 46° NNW
Cosmos 1833 Rocket 2.5 21:54:14 70° ESE 21:54:14 70° ESE 21:59:46 10° NNE
OAO 1 4.4 21:50:19 10° WNW 21:55:49 83° NNE 21:56:12 76° ENE
Cosmos 1697 Rocket 4.2 21:54:23 10° N 21:58:14 22° NE 21:58:14 22° NE
Cosmos 1812 4.2 21:57:10 10° N 21:59:19 32° N 21:59:19 32° N
Cosmos 1727 Rocket 4.4 21:54:49 10° NNW 22:01:02 59° W 22:03:38 35° SSW
IGS 5A 4.3 22:06:27 48° NNW 22:06:27 48° NNW 22:09:33 10° NNW
COSMOS 2406 3.6 22:01:11 18° SW 22:05:30 61° WNW 22:11:11 10° NNE
ATLAS 5 CENTAUR R/B 3.3 22:00:44 10° N 22:06:14 35° NE 22:06:36 35° ENE
Cosmos 1140 Rocket 4.4 22:08:37 38° NE 22:08:37 38° NE 22:11:55 10° NNE
Resurs 01 Rocket 3.2 22:07:19 26° WSW 22:08:05 28° W 22:11:53 10° NW
Cosmos 2228 Rocket 4.1 22:04:10 10° NNW 22:08:18 40° W 22:08:26 40° W
Landsat 7 4.1 22:11:30 64° WNW 22:11:30 64° WNW 22:15:43 10° NNW
Cosmos 1934 Rocket 3.9 22:23:16 78° SW 22:23:38 82° W 22:30:01 10° N
Meteor 1-27 Rocket 3.8 22:18:36 10° N 22:24:01 76° N 22:24:01 76° N
Cosmos 1656 4.1 22:26:42 10° NNW 22:31:05 58° NNW 22:31:05 58° NNW
Cosmos 2082 Rocket 3.0 22:38:00 45° NNE 22:38:00 45° NNE 22:41:53 10° NNE
ERS-1 Rocket 4.3 22:56:07 35° NW 22:56:07 35° NW 22:59:19 10° NNW
Cosmos 2123 Rocket 4.4 22:48:35 10° NNW 22:53:53 60° NW 22:53:53 60° NW
Aureole 1 Rocket 4.4 22:57:25 62° NW 22:57:25 62° NW 23:04:08 10° N
Terra 3.6 23:02:13 28° NNW 23:02:13 28° NNW 23:04:31 10° NNW
USA 234 4.4 23:26:32 33° W 23:26:32 33° W 23:30:35 10° WNW
Cosmos 1980 Rocket 3.7 23:19:07 10° NNW 23:22:08 32° N 23:22:08 32° N
ATLAS 5 CENTAUR R/B 4.2 23:45:13 10° NW 23:48:07 26° WNW 23:48:07 26° WNW
